sat.trackr.live / text

‹ back to catalog

STARLINK-2720

NORAD 48653 · 2021-044R

PAYLOAD ACTIVE UNKNOWN

§ Identity

Operator
Country
US
Launch date
2021-05-26
Launch site
AFETR
Launch vehicle
Mass (kg)
RCS (m²)

Purposes: comms

External: N2YO · Heavens-Above · Gunter

§ Orbital elements

Epoch: 2026-09-19T18:37:32.060064Z

Period
94.01 min
Inclination
53.1587°
Eccentricity
0.0001216
Mean motion
15.31710056 rev/d
Perigee alt
469.9 km
Apogee alt
471.5 km
Semi-major
6,848.8 km
B*
4.9930e-5
RAAN
290.6306°
Arg perigee
41.6433°
Mean anomaly
318.4661°
Rev number
29,356

§ Raw data

STARLINK-27201 48653U 21044R   26262.77606551  .00001185  00000+0  49930-4 0  99952 48653  53.1587 290.6306 0001216  41.6433 318.4661 15.31710056293567

JSON: /api/v1/satellites/48653 · /tle

For live sub-satellite position, see the globe view (requires WebGL).

§ Visibility from observer

Set your observer location to see the next 7 days of passes ≥ 10°. The values pass through the URL so the page stays shareable.

No JS? Fill the form by hand. The geolocation button needs JavaScript.